Simultaneous Nadir Overpasses (SNOs) Predictions

Prediction of SNOs between LANDSAT-8 and NPP Satellite Orbit:

Table of predicted SNOs for the next 14.0 days since TLE Epoch: 12/8/2018
Index Date (LANDSAT-8) Time (LANDSAT-8) Lat,Lon (LANDSAT-8) SZA (LANDSAT-8 ) Date (NPP) Time (NPP) Lat,Lon (NPP) SZA (NPP ) Distance(km) Time Diff (sec)
1 12/08/2018 14:41:49 -70.13, 136.01 87.23 12/08/2018 14:41:17 -70.12, 136.00 87.23 0.37 32
2 12/08/2018 15:31:16 70.02, -56.50 92.67 12/08/2018 15:32:01 70.01, -56.52 92.66 1.44 45
3 12/11/2018 06:08:46 70.32, 84.53 93.21 12/11/2018 06:07:33 70.37, 84.06 93.28 18.81 73
4 12/11/2018 06:58:18 -70.10,-108.15 87.01 12/11/2018 06:58:11 -70.07,-108.15 87.04 3.38 7
5 12/11/2018 07:47:46 69.94, 59.27 92.84 12/11/2018 07:48:55 69.96, 59.33 92.86 3.42 69
6 12/13/2018 22:25:16 70.18,-159.79 93.27 12/13/2018 22:24:23 70.17,-159.85 93.26 2.59 53
7 12/13/2018 23:14:47 -70.02, 7.62 86.89 12/13/2018 23:15:04 -70.02, 7.69 86.89 2.85 17
8 12/14/2018 00:04:28 69.13, 174.06 92.24 12/14/2018 00:05:34 69.17, 176.24 92.25 86.34 66
9 12/16/2018 14:41:45 70.14, -43.95 93.38 12/16/2018 14:41:17 70.13, -44.02 93.36 3.29 28
10 12/16/2018 15:31:16 -69.99, 123.46 86.78 12/16/2018 15:31:58 -69.97, 123.54 86.80 3.52 42
11 12/19/2018 06:08:44 -70.39, -95.36 86.30 12/19/2018 06:07:32 -70.44, -96.05 86.23 26.62 72
12 12/19/2018 06:58:15 70.06, 71.80 93.38 12/19/2018 06:58:11 70.08, 71.82 93.41 3.01 4
13 12/19/2018 07:47:45 -69.96,-120.70 86.72 12/19/2018 07:48:53 -69.98,-120.70 86.71 2.30 68
14 12/21/2018 22:25:17 -70.14, 20.16 86.51 12/21/2018 22:24:21 -70.14, 20.19 86.51 1.35 56
15 12/21/2018 23:14:44 70.02,-172.36 93.38 12/21/2018 23:15:05 70.04,-172.35 93.40 2.50 21




NCC Satellite Simultaneous Nadir Overpasses (SNOs) Prediction Service
